User: anonymous   Login
Location: Strawberry
(45.6646°N, 111.9596°W)
Time: 09:31:54
(UTC+00:00)
Language:

XW-2C - Orbit

View from above orbital plane
View from above orbital plane
View from above satellite
View from above satellite

Ground track
Ground track

The orbit data is extracted from the following two-line orbital elements,

1 40906U 15049H   22329.83711984  .00004959  00000-0  22648-3 0  9999
2 40906  97.4958 332.1829 0013870 148.4921 333.7305 15.20964178397432
Epoch (UTC): 25 November 2022 20:05:27
Eccentricity: 0.0013870
inclination: 97.4958°
perigee height: 493 km
apogee height: 512 km
right ascension of ascending node: 332.1829°
argument of perigee: 148.4921°
revolutions per day: 15.20964178
mean anomaly at epoch: 333.7305°
orbit number at epoch: 39743

The dashed part of the orbit path shows where the satellite is in the earth's shadow,  

DLR